TimeCST,TemperatureF,Dew PointF,Humidity,Sea Level PressureIn,VisibilityMPH,Wind Direction,Wind SpeedMPH,Gust SpeedMPH,PrecipitationIn,Events,Conditions,WindDirDegrees,DateUTC
12:15 AM,35.6,30.2,81,29.48,10.0,Calm,Calm,-,N/A,,Overcast,0,2012-12-16 06:15:00
12:55 AM,35.6,30.2,81,29.48,10.0,SSW,3.5,-,N/A,,Overcast,200,2012-12-16 06:55:00
1:15 AM,35.6,30.2,81,29.47,10.0,SSE,3.5,-,N/A,,Overcast,160,2012-12-16 07:15:00
1:35 AM,35.6,30.2,81,29.47,10.0,Calm,Calm,-,N/A,,Overcast,0,2012-12-16 07:35:00
1:55 AM,35.6,30.2,81,29.47,10.0,Calm,Calm,-,N/A,,Overcast,0,2012-12-16 07:55:00
2:15 AM,35.6,30.2,81,29.47,10.0,Calm,Calm,-,N/A,,Overcast,0,2012-12-16 08:15:00
2:55 AM,33.8,30.2,87,29.48,7.0,WSW,3.5,-,N/A,,Overcast,250,2012-12-16 08:55:00
3:15 AM,33.8,30.2,87,29.48,4.0,Calm,Calm,-,N/A,,Overcast,0,2012-12-16 09:15:00
3:35 AM,33.8,30.2,87,29.48,3.0,Calm,Calm,-,0.01,,Overcast,0,2012-12-16 09:35:00
3:55 AM,33.8,30.2,87,29.48,5.0,WSW,3.5,-,0.02,,Overcast,250,2012-12-16 09:55:00
4:15 AM,33.8,28.4,81,29.48,3.0,WSW,4.6,-,N/A,,Overcast,250,2012-12-16 10:15:00
4:35 AM,33.8,28.4,81,29.48,3.0,WSW,3.5,-,N/A,,Overcast,250,2012-12-16 10:35:00
4:55 AM,33.8,28.4,81,29.49,3.0,WSW,3.5,-,N/A,,Overcast,250,2012-12-16 10:55:00
5:35 AM,33.8,28.4,81,29.49,3.0,WSW,4.6,-,N/A,,Overcast,250,2012-12-16 11:35:00
5:55 AM,33.8,28.4,81,29.50,5.0,West,5.8,-,N/A,,Overcast,260,2012-12-16 11:55:00
6:15 AM,32.0,28.4,87,29.50,4.0,West,5.8,-,N/A,,Overcast,270,2012-12-16 12:15:00
6:35 AM,33.8,28.4,81,29.50,3.0,West,6.9,-,N/A,,Overcast,260,2012-12-16 12:35:00
6:55 AM,32.0,28.4,87,29.50,3.0,West,6.9,-,N/A,,Overcast,260,2012-12-16 12:55:00
7:15 AM,32.0,28.4,87,29.51,4.0,West,5.8,-,N/A,,Overcast,260,2012-12-16 13:15:00
7:35 AM,32.0,28.4,87,29.51,3.0,West,5.8,-,N/A,,Overcast,260,2012-12-16 13:35:00
7:55 AM,32.0,28.4,87,29.51,3.0,West,6.9,-,N/A,,Overcast,260,2012-12-16 13:55:00
8:15 AM,32.0,28.4,87,29.51,4.0,West,8.1,-,N/A,,Overcast,270,2012-12-16 14:15:00
8:35 AM,32.0,28.4,87,29.52,6.0,West,5.8,-,N/A,,Overcast,270,2012-12-16 14:35:00
8:55 AM,33.8,28.4,81,29.52,2.5,West,8.1,-,0.01,,Overcast,260,2012-12-16 14:55:00
9:15 AM,33.8,28.4,81,29.53,3.0,West,6.9,-,N/A,,Overcast,270,2012-12-16 15:15:00
9:35 AM,33.8,28.4,81,29.53,3.0,West,8.1,-,N/A,,Overcast,260,2012-12-16 15:35:00
9:55 AM,33.8,28.4,81,29.54,0.5,West,6.9,-,N/A,,Overcast,270,2012-12-16 15:55:00
10:15 AM,33.8,28.4,81,29.54,0.2,West,8.1,-,0.01,,Overcast,270,2012-12-16 16:15:00
10:55 AM,33.8,28.4,81,29.55,0.2,West,8.1,-,0.02,,Overcast,260,2012-12-16 16:55:00
11:15 AM,33.8,30.2,87,29.54,0.2,West,6.9,-,0.01,,Overcast,270,2012-12-16 17:15:00
11:35 AM,33.8,28.4,81,29.54,0.2,West,8.1,-,0.01,,Overcast,270,2012-12-16 17:35:00
11:55 AM,33.8,30.2,87,29.54,7.0,West,9.2,-,0.02,,Overcast,270,2012-12-16 17:55:00
12:15 PM,33.8,30.2,87,29.53,10.0,West,6.9,-,N/A,,Overcast,280,2012-12-16 18:15:00
12:35 PM,33.8,30.2,87,29.54,10.0,WNW,10.4,-,0.01,,Overcast,290,2012-12-16 18:35:00
12:55 PM,33.8,30.2,87,29.54,10.0,WNW,9.2,-,0.01,,Overcast,290,2012-12-16 18:55:00
1:15 PM,33.8,30.2,87,29.53,10.0,WNW,10.4,16.1,N/A,,Overcast,290,2012-12-16 19:15:00
1:35 PM,33.8,30.2,87,29.54,10.0,WNW,11.5,-,N/A,,Overcast,300,2012-12-16 19:35:00
1:55 PM,33.8,30.2,87,29.54,10.0,WNW,10.4,16.1,N/A,,Overcast,290,2012-12-16 19:55:00
2:15 PM,33.8,30.2,87,29.54,0.2,WNW,11.5,17.3,N/A,,Overcast,290,2012-12-16 20:15:00
2:35 PM,32.0,28.4,87,29.55,0.2,West,9.2,-,N/A,,Overcast,280,2012-12-16 20:35:00
2:55 PM,32.0,28.4,87,29.56,0.2,WNW,13.8,-,N/A,,Overcast,300,2012-12-16 20:55:00
3:15 PM,32.0,28.4,87,29.56,1.2,WNW,8.1,-,N/A,,Overcast,290,2012-12-16 21:15:00
3:35 PM,30.2,28.4,93,29.57,1.0,West,11.5,-,N/A,,Overcast,280,2012-12-16 21:35:00
4:15 PM,30.2,26.6,86,29.58,1.2,West,5.8,-,N/A,,Overcast,280,2012-12-16 22:15:00
4:35 PM,30.2,26.6,86,29.59,3.0,West,10.4,-,N/A,,Overcast,280,2012-12-16 22:35:00
4:55 PM,30.2,26.6,86,29.59,3.0,West,8.1,-,N/A,,Overcast,280,2012-12-16 22:55:00
5:15 PM,30.2,26.6,86,29.59,4.0,West,13.8,-,N/A,,Overcast,280,2012-12-16 23:15:00
5:35 PM,30.2,24.8,80,29.60,3.0,WNW,9.2,-,N/A,,Overcast,290,2012-12-16 23:35:00
5:55 PM,28.4,24.8,86,29.60,4.0,West,11.5,-,N/A,,Overcast,280,2012-12-16 23:55:00
6:15 PM,28.4,24.8,86,29.61,5.0,West,11.5,-,N/A,,Overcast,280,2012-12-17 00:15:00
6:35 PM,28.4,23.0,80,29.62,7.0,West,12.7,-,N/A,,Overcast,280,2012-12-17 00:35:00
6:55 PM,26.6,23.0,86,29.62,7.0,WNW,9.2,-,N/A,,Overcast,290,2012-12-17 00:55:00
7:15 PM,26.6,23.0,86,29.62,8.0,West,12.7,-,N/A,,Overcast,270,2012-12-17 01:15:00
7:35 PM,26.6,21.2,80,29.63,5.0,West,11.5,-,N/A,,Overcast,270,2012-12-17 01:35:00
7:55 PM,26.6,21.2,80,29.62,7.0,West,10.4,-,N/A,,Overcast,270,2012-12-17 01:55:00
8:15 PM,26.6,21.2,80,29.63,9.0,West,13.8,-,N/A,,Overcast,270,2012-12-17 02:15:00
8:35 PM,26.6,21.2,80,29.63,10.0,West,9.2,-,N/A,,Overcast,270,2012-12-17 02:35:00
8:55 PM,26.6,21.2,80,29.63,10.0,West,11.5,-,N/A,,Overcast,270,2012-12-17 02:55:00
9:15 PM,24.8,21.2,86,29.64,10.0,West,11.5,-,N/A,,Overcast,270,2012-12-17 03:15:00
9:35 PM,24.8,21.2,86,29.64,10.0,West,10.4,-,N/A,,Overcast,270,2012-12-17 03:35:00
9:55 PM,24.8,21.2,86,29.64,9.0,West,11.5,-,N/A,,Overcast,270,2012-12-17 03:55:00
10:15 PM,24.8,19.4,80,29.64,10.0,West,11.5,-,N/A,,Overcast,260,2012-12-17 04:15:00
10:35 PM,24.8,21.2,86,29.64,10.0,West,10.4,-,N/A,,Overcast,260,2012-12-17 04:35:00
10:55 PM,24.8,19.4,80,29.64,10.0,West,12.7,-,N/A,,Overcast,260,2012-12-17 04:55:00
11:15 PM,24.8,19.4,80,29.64,10.0,West,15.0,-,N/A,,Overcast,260,2012-12-17 05:15:00
11:55 PM,24.8,19.4,80,29.64,10.0,WSW,13.8,-,N/A,,Overcast,250,2012-12-17 05:55:00